Saint David, ME

9:28 AM EST on February 27, 2017 (GMT -0500)
Northern Aroostook Regional

Weather History for KFVE - September, 2013

Change the Weather History Date:

Tuesday, September 10, 2013

  Actual Average Record
Temperature  
Mean Temperature 61 °F 56 °F  
Max Temperature 69 °F 65 °F 84 °F (2002)
Min Temperature 52 °F 46 °F 37 °F (2006)
Degree Days  
Heating Degree Days 4    
Month to date heating degree days 90  
Since 1 July heating degree days 253  
Cooling Degree Days 0    
Month to date cooling degree days 3  
Year to date cooling degree days 138  
Growing Degree Days 8 (Base 50)    
Moisture  
Dew Point 50 °F    
Average Humidity 77    
Maximum Humidity 100    
Minimum Humidity 58    
Precipitation  
Precipitation 0.05 in 0.12 in 2.29 in (1999)
Month to date precipitation 1.19 1.22  
Year to date precipitation 25.70 23.28  
Snow  
Snow 0.00 in - - ()
Month to date snowfall 0.0  
Snow Depth 0.00 in    
Sea Level Pressure  
Sea Level Pressure 30.02 in    
Wind  
Wind Speed 6 mph (South)    
Max Wind Speed 13 mph    
Max Gust Speed 18 mph    
Visibility 9 miles    
Events Rain    
T = Trace of Precipitation, MM = Missing Value Source: NWS Daily Summary

Daily Weather History Graph

Daily Weather History Graph

Search for Another Location

Airport or City:

Trip Planner

Search our weather history database for the weather conditions in past years. The results will help you decide how hot, cold, wet, or windy it might be!

Date:

Astronomy

Sep. 10, 2013 Rise Set
Actual Time 6:04 AM EDT 6:54 PM EDT
Civil Twilight 5:33 AM EDT 7:25 PM EDT
Nautical Twilight 4:56 AM EDT 8:02 PM EDT
Astronomical Twilight 4:17 AM EDT 8:41 PM EDT
Moon 11:50 AM EDT (9/10) 9:30 PM EDT (9/10)
Length of Visible Light 13h 52m
Length of Day
12h 50m
Waxing Crescent, 28% of the Moon is Illuminated
Sep 10
Waxing Crescent
Sep 12
First Quarter
Sep 19
Full
Sep 26
Last Quarter
Oct 4
New

Hourly Weather History & Observations

Time (EDT) Temp. Dew Point Humidity Pressure Visibility Wind Dir Wind Speed Gust Speed Precip Events Conditions
12:53 AM 53.1 °F 43.0 °F 69% 29.96 in 10.0 mi SW 9.2 mph - N/A   Clear
1:53 AM 53.1 °F 43.0 °F 69% 29.98 in 10.0 mi SSW 8.1 mph - N/A   Clear
2:53 AM 53.1 °F 44.1 °F 71% 29.98 in 10.0 mi Variable 3.5 mph - N/A   Clear
3:53 AM 52.0 °F 44.1 °F 74% 29.97 in 10.0 mi South 5.8 mph - N/A   Clear
4:53 AM 53.1 °F 45.0 °F 74% 29.98 in 10.0 mi South 9.2 mph - N/A   Clear
5:53 AM 52.0 °F 45.0 °F 77% 30.00 in 10.0 mi South 8.1 mph - N/A   Mostly Cloudy
6:53 AM 53.1 °F 45.0 °F 74% 30.01 in 10.0 mi South 5.8 mph - N/A   Overcast
7:53 AM 54.0 °F 46.9 °F 77% 30.01 in 10.0 mi South 4.6 mph - N/A   Clear
8:53 AM 55.9 °F 46.9 °F 72% 30.02 in 10.0 mi South 4.6 mph - N/A   Clear
9:53 AM 57.9 °F 48.0 °F 70% 30.02 in 10.0 mi SSW 3.5 mph - N/A   Partly Cloudy
10:53 AM 60.1 °F 48.9 °F 67% 30.03 in 10.0 mi SSE 3.5 mph - N/A   Mostly Cloudy
11:53 AM 62.1 °F 50.0 °F 65% 30.02 in 10.0 mi SSE 6.9 mph - N/A   Mostly Cloudy
12:53 PM 64.9 °F 50.0 °F 58% 30.03 in 10.0 mi Variable 6.9 mph - N/A   Clear
1:53 PM 64.9 °F 50.0 °F 58% 30.03 in 10.0 mi South 8.1 mph - N/A   Overcast
2:53 PM 64.9 °F 50.0 °F 58% 30.02 in 10.0 mi South 6.9 mph - N/A   Overcast
3:53 PM 63.0 °F 50.0 °F 63% 30.04 in 10.0 mi SSW 8.1 mph - N/A   Overcast
4:53 PM 62.1 °F 51.1 °F 67% 30.03 in 10.0 mi South 6.9 mph - N/A   Overcast
5:53 PM 61.0 °F 52.0 °F 72% 30.04 in 10.0 mi South 3.5 mph - N/A   Overcast
6:53 PM 59.0 °F 53.1 °F 81% 30.04 in 10.0 mi SSE 4.6 mph - N/A   Overcast
7:34 PM 59.0 °F 53.6 °F 82% 30.05 in 10.0 mi SSE 4.6 mph - N/A   Overcast
7:53 PM 59.0 °F 53.1 °F 81% 30.06 in 10.0 mi SSE 6.9 mph - N/A   Overcast
8:25 PM 59.0 °F 53.6 °F 82% 30.05 in 10.0 mi SE 6.9 mph - N/A   Overcast
8:53 PM 57.9 °F 55.0 °F 90% 30.05 in 10.0 mi SSE 6.9 mph - N/A   Overcast
9:26 PM 57.2 °F 55.4 °F 94% 30.05 in 10.0 mi SSE 6.9 mph - N/A   Overcast
9:53 PM 57.9 °F 54.0 °F 87% 30.04 in 10.0 mi SSE 9.2 mph - N/A   Overcast
10:45 PM 57.2 °F 55.4 °F 94% 30.04 in 10.0 mi South 6.9 mph - N/A   Overcast
10:53 PM 57.9 °F 55.0 °F 90% 30.03 in 8.0 mi South 8.1 mph - 0.00 in Rain Light Rain
11:26 PM 57.2 °F 55.4 °F 94% 30.02 in 6.0 mi SSE 5.8 mph - 0.00 in   Overcast
11:38 PM 57.2 °F 55.4 °F 94% 30.02 in 2.5 mi SSE 6.9 mph - 0.02 in Rain Light Rain
11:49 PM 55.4 °F 55.4 °F 100% 30.01 in 4.0 mi SSE 5.8 mph - 0.02 in Rain Light Rain
11:53 PM 55.9 °F 55.0 °F 97% 30.01 in 4.0 mi SSE 4.6 mph - 0.02 in Rain Light Rain